AFL6898 UIII-UHHH

Flight info

Callsign AFL6898
Flight time N/A
Altitude 37000
Route GOLOS5D GOLOS A810 KUDAR P873 NIKTO G229 GU N992 TORMA A946 IVADA IVADA6F
Aircraft A332/H-SDE3GHIJ2J3J5M1RVWXY/LB2D1

Departure

Time 2026-05-04 15:19
Airport Irkutsk International Airport (UIII)

Arrival

Time N/A
Airport Khabarovsk Novy Airport (UHHH)
Time Latitude Longitude Altitude Speed Heading
2026-05-04 14:40 52.27127 104.36120 1601 ft 0 kts 354°
2026-05-04 15:02 52.27137 104.36119 1601 ft 2 kts 355°
2026-05-04 15:02 52.27165 104.36118 1600 ft 4 kts 15°
2026-05-04 15:02 52.27190 104.36159 1598 ft 6 kts 63°
2026-05-04 15:03 52.27191 104.36215 1598 ft 4 kts 102°
2026-05-04 15:03 52.27184 104.36260 1599 ft 3 kts 109°
2026-05-04 15:03 52.27178 104.36287 1599 ft 1 kts 109°
2026-05-04 15:03 52.27175 104.36298 1599 ft 2 kts 110°
2026-05-04 15:04 52.27163 104.36352 1600 ft 5 kts 110°
2026-05-04 15:04 52.27152 104.36406 1601 ft 4 kts 110°
2026-05-04 15:04 52.27143 104.36442 1601 ft 2 kts 110°
2026-05-04 15:04 52.27139 104.36459 1601 ft 0 kts 111°
2026-05-04 15:05 52.27136 104.36471 1601 ft 4 kts 111°
2026-05-04 15:05 52.27122 104.36533 1603 ft 5 kts 109°
2026-05-04 15:05 52.27112 104.36576 1604 ft 4 kts 110°
2026-05-04 15:05 52.27101 104.36626 1605 ft 4 kts 110°
2026-05-04 15:06 52.27094 104.36659 1605 ft 2 kts 109°
2026-05-04 15:06 52.27090 104.36679 1606 ft 1 kts 110°
2026-05-04 15:06 52.27069 104.36771 1607 ft 14 kts 110°
2026-05-04 15:07 52.27005 104.37062 1611 ft 12 kts 109°
2026-05-04 15:07 52.27000 104.37192 1610 ft 12 kts 45°
2026-05-04 15:07 52.27016 104.37299 1608 ft 8 kts 114°
2026-05-04 15:07 52.26997 104.37357 1610 ft 2 kts 122°
2026-05-04 15:08 52.26978 104.37407 1611 ft 10 kts 121°
2026-05-04 15:08 52.26933 104.37535 1614 ft 13 kts 114°
2026-05-04 15:08 52.26896 104.37666 1616 ft 11 kts 114°
2026-05-04 15:08 52.26865 104.37779 1618 ft 10 kts 114°
2026-05-04 15:09 52.26834 104.37888 1620 ft 10 kts 114°
2026-05-04 15:09 52.26808 104.37984 1621 ft 8 kts 114°
2026-05-04 15:09 52.26785 104.38071 1623 ft 7 kts 113°
2026-05-04 15:10 52.26749 104.38203 1627 ft 6 kts 113°
2026-05-04 15:10 52.26732 104.38265 1629 ft 9 kts 113°
2026-05-04 15:10 52.26649 104.38583 1635 ft 13 kts 112°
2026-05-04 15:11 52.26616 104.38710 1638 ft 11 kts 112°
2026-05-04 15:11 52.26587 104.38821 1639 ft 10 kts 113°
2026-05-04 15:11 52.26557 104.38935 1643 ft 11 kts 113°
2026-05-04 15:11 52.26528 104.39046 1646 ft 9 kts 113°
2026-05-04 15:12 52.26507 104.39127 1648 ft 6 kts 113°
2026-05-04 15:12 52.26495 104.39174 1650 ft 3 kts 113°
2026-05-04 15:12 52.26486 104.39208 1650 ft 2 kts 113°
2026-05-04 15:12 52.26475 104.39249 1651 ft 4 kts 113°
2026-05-04 15:13 52.26463 104.39296 1651 ft 4 kts 113°
2026-05-04 15:13 52.26445 104.39362 1652 ft 8 kts 113°
2026-05-04 15:13 52.26409 104.39497 1653 ft 15 kts 113°
2026-05-04 15:13 52.26366 104.39661 1655 ft 15 kts 113°
2026-05-04 15:14 52.26324 104.39822 1653 ft 16 kts 113°
2026-05-04 15:14 52.26276 104.40002 1649 ft 18 kts 113°
2026-05-04 15:14 52.26224 104.40197 1648 ft 18 kts 113°
2026-05-04 15:14 52.26174 104.40382 1650 ft 16 kts 113°
2026-05-04 15:15 52.26130 104.40549 1653 ft 15 kts 113°
2026-05-04 15:15 52.26091 104.40694 1656 ft 12 kts 113°
2026-05-04 15:15 52.26062 104.40803 1659 ft 9 kts 113°
2026-05-04 15:16 52.26025 104.40939 1662 ft 4 kts 113°
2026-05-04 15:16 52.26018 104.40968 1662 ft 1 kts 113°
2026-05-04 15:16 52.25988 104.41092 1666 ft 3 kts 87°
2026-05-04 15:17 52.25993 104.41110 1667 ft 5 kts 61°
2026-05-04 15:17 52.26062 104.41210 1669 ft 6 kts 26°
2026-05-04 15:17 52.26102 104.41241 1669 ft 6 kts 24°
2026-05-04 15:18 52.26142 104.41268 1669 ft 6 kts 18°
2026-05-04 15:18 52.26209 104.41270 1667 ft 12 kts 346°
2026-05-04 15:18 52.26259 104.41153 1664 ft 19 kts 296°
2026-05-04 15:19 52.26749 104.39343 1641 ft 148 kts 294°
2026-05-04 15:19 52.27181 104.37681 2100 ft 157 kts 293°
2026-05-04 15:19 52.27985 104.34792 3596 ft 137 kts 291°
2026-05-04 15:20 52.28372 104.33279 3735 ft 159 kts 293°
2026-05-04 15:20 52.28824 104.31548 4074 ft 171 kts 293°
2026-05-04 15:20 52.29300 104.29744 4588 ft 175 kts 297°
2026-05-04 15:20 52.30196 104.28356 4988 ft 190 kts 338°
2026-05-04 15:21 52.31550 104.28266 5565 ft 203 kts 15°
2026-05-04 15:21 52.32852 104.29004 6437 ft 195 kts 12°
2026-05-04 15:21 52.35323 104.30032 7899 ft 189 kts
2026-05-04 15:22 52.36547 104.30496 8544 ft 190 kts
2026-05-04 15:22 52.37833 104.30978 9238 ft 190 kts
2026-05-04 15:22 52.40388 104.31920 10506 ft 194 kts
2026-05-04 15:23 52.41756 104.32423 11105 ft 199 kts
2026-05-04 15:23 52.43131 104.32928 11712 ft 203 kts
2026-05-04 15:23 52.44507 104.33537 12280 ft 211 kts 21°
2026-05-04 15:23 52.45629 104.35222 12796 ft 232 kts 55°
2026-05-04 15:24 52.45591 104.40559 13835 ft 257 kts 114°
2026-05-04 15:24 52.44561 104.46195 14957 ft 262 kts 101°
2026-05-04 15:25 52.44164 104.49120 15489 ft 267 kts 101°
2026-05-04 15:25 52.43772 104.52110 16060 ft 269 kts 100°
2026-05-04 15:25 52.43375 104.55136 16528 ft 276 kts 102°
2026-05-04 15:26 52.42241 104.61201 17582 ft 284 kts 106°
2026-05-04 15:26 52.41651 104.64303 18098 ft 288 kts 107°
2026-05-04 15:26 52.40445 104.70634 19135 ft 296 kts 108°
2026-05-04 15:27 52.39822 104.73891 19604 ft 301 kts 108°
2026-05-04 15:27 52.38560 104.80482 20574 ft 310 kts 108°
2026-05-04 15:28 52.37248 104.87312 21533 ft 318 kts 108°
2026-05-04 15:28 52.36581 104.90775 22007 ft 321 kts 108°
2026-05-04 15:28 52.35216 104.97835 22914 ft 329 kts 108°
2026-05-04 15:29 52.34523 105.01416 23354 ft 334 kts 108°
2026-05-04 15:30 52.31636 105.16243 25016 ft 352 kts 109°
2026-05-04 15:30 52.29338 105.27960 26099 ft 369 kts 109°
2026-05-04 15:31 52.28174 105.36156 26767 ft 378 kts 86°
2026-05-04 15:31 52.28292 105.40494 27159 ft 381 kts 85°
2026-05-04 15:32 52.28762 105.63484 28975 ft 406 kts 85°
2026-05-04 15:33 52.28934 105.72842 29665 ft 415 kts 86°
2026-05-04 15:34 52.29182 105.86983 30440 ft 433 kts 86°
2026-05-04 15:34 52.29263 105.91904 30568 ft 443 kts 86°
2026-05-04 15:34 52.29429 106.02167 30808 ft 463 kts 86°
2026-05-04 15:35 52.29588 106.12897 31028 ft 481 kts 87°
2026-05-04 15:35 52.29669 106.18385 31138 ft 490 kts 86°
2026-05-04 15:36 52.29899 106.35477 31454 ft 516 kts 87°
2026-05-04 15:36 52.30089 106.47363 31650 ft 531 kts 82°
2026-05-04 15:37 52.30824 106.53260 31737 ft 532 kts 70°
2026-05-04 15:37 52.31804 106.59083 31910 ft 536 kts 70°
2026-05-04 15:37 52.32776 106.64978 32230 ft 534 kts 70°
2026-05-04 15:37 52.33716 106.70760 32559 ft 532 kts 71°
2026-05-04 15:38 52.34663 106.76603 32889 ft 530 kts 71°
2026-05-04 15:38 52.35596 106.82384 33183 ft 529 kts 72°
2026-05-04 15:38 52.36540 106.88249 33506 ft 527 kts 71°
2026-05-04 15:38 52.37449 106.93919 33812 ft 525 kts 71°
2026-05-04 15:39 52.38364 106.99628 34069 ft 525 kts 71°
2026-05-04 15:39 52.39288 107.05442 34423 ft 522 kts 71°
2026-05-04 15:39 52.41107 107.16923 35046 ft 520 kts 72°
2026-05-04 15:40 52.42007 107.22625 35384 ft 517 kts 72°
2026-05-04 15:40 52.42890 107.28271 35723 ft 515 kts 71°
2026-05-04 15:40 52.43776 107.33920 36011 ft 513 kts 71°
2026-05-04 15:40 52.44661 107.39593 36247 ft 513 kts 72°
2026-05-04 15:41 52.45544 107.45265 36416 ft 514 kts 72°
2026-05-04 15:41 52.46404 107.50837 36664 ft 513 kts 72°
2026-05-04 15:41 52.47284 107.56520 36883 ft 510 kts 71°
2026-05-04 15:42 52.49006 107.67744 36873 ft 508 kts 73°
2026-05-04 15:42 52.50719 107.78967 36894 ft 508 kts 73°
2026-05-04 15:43 52.52422 107.90232 36901 ft 509 kts 73°
2026-05-04 15:43 52.54119 108.01513 36903 ft 509 kts 73°
2026-05-04 15:44 52.55794 108.12730 36886 ft 509 kts 73°
2026-05-04 15:44 52.57467 108.24013 36879 ft 508 kts 73°
2026-05-04 15:45 52.59123 108.35266 36869 ft 508 kts 73°
2026-05-04 15:45 52.60773 108.46570 36847 ft 508 kts 73°
2026-05-04 15:46 52.61536 108.51809 36863 ft 508 kts 73°
2026-05-04 15:46 52.62727 108.60043 36840 ft 510 kts 73°
2026-05-04 15:47 52.63991 108.68823 36814 ft 507 kts 74°
2026-05-04 15:47 52.65525 108.79555 36723 ft 502 kts 74°
2026-05-04 15:48 52.66471 108.86204 36690 ft 495 kts 73°
2026-05-04 15:48 52.67237 108.91585 36666 ft 484 kts 72°
2026-05-04 15:48 52.68433 109.00007 36739 ft 470 kts 72°
2026-05-04 15:49 52.69163 109.05185 36844 ft 461 kts 73°
2026-05-04 15:49 52.69876 109.10287 36803 ft 456 kts 72°
2026-05-04 15:49 52.71279 109.20371 36818 ft 444 kts 72°
2026-05-04 15:50 52.72635 109.30167 36811 ft 434 kts 72°
2026-05-04 15:50 52.73953 109.39765 36805 ft 423 kts 72°
2026-05-04 15:51 52.75229 109.49125 36811 ft 413 kts 72°
2026-05-04 15:51 52.76469 109.58254 36819 ft 402 kts 72°
2026-05-04 15:52 52.77665 109.67120 36801 ft 392 kts 72°
2026-05-04 15:52 52.78823 109.75764 36793 ft 381 kts 72°
2026-05-04 15:53 52.79947 109.84206 36780 ft 369 kts 71°
2026-05-04 15:53 52.80640 109.89436 36770 ft 362 kts 71°
2026-05-04 15:54 52.81094 109.92846 36747 ft 356 kts 71°
2026-05-04 15:54 52.81727 109.96841 36249 ft 369 kts 66°
2026-05-04 15:54 52.82496 110.00935 35925 ft 377 kts 75°
2026-05-04 15:55 52.82701 110.05198 36091 ft 365 kts 85°
2026-05-04 15:55 52.82886 110.09297 36321 ft 347 kts 76°
2026-05-04 15:55 52.83294 110.13219 36078 ft 350 kts 71°
2026-05-04 15:55 52.83883 110.17137 35627 ft 360 kts 66°
2026-05-04 15:56 52.84372 110.19801 35349 ft 368 kts 66°
2026-05-04 15:56 52.85371 110.25405 32815 ft 458 kts 68°
2026-05-04 15:56 52.86403 110.30635 31308 ft 500 kts 63°
2026-05-04 15:56 52.87686 110.35831 31457 ft 487 kts 60°
2026-05-04 15:57 52.89071 110.40865 31647 ft 475 kts 60°
2026-05-04 15:57 52.90039 110.45981 32065 ft 463 kts 74°
2026-05-04 15:57 52.90260 110.51311 31987 ft 467 kts 91°
2026-05-04 15:57 52.89920 110.56628 32037 ft 461 kts 87°
2026-05-04 15:58 52.90184 110.61787 32133 ft 449 kts 76°
2026-05-04 15:58 52.90700 110.66849 32176 ft 444 kts 75°
2026-05-04 15:58 52.91878 110.76771 32232 ft 435 kts 73°
2026-05-04 15:59 52.92555 110.81699 31650 ft 455 kts 72°
2026-05-04 15:59 52.93397 110.86897 30663 ft 483 kts 69°
2026-05-04 15:59 52.94454 110.92236 29963 ft 497 kts 65°
2026-05-04 15:59 52.95524 110.97395 29224 ft 513 kts 70°
2026-05-04 16:00 52.96259 111.03522 28383 ft 529 kts 80°
2026-05-04 16:00 52.96545 111.09598 28134 ft 526 kts 83°
2026-05-04 16:00 52.96796 111.15492 28287 ft 508 kts 83°
2026-05-04 16:00 52.97036 111.21324 28360 ft 500 kts 82°
2026-05-04 16:01 52.97511 111.32685 28031 ft 492 kts 77°
2026-05-04 16:01 52.97977 111.38251 27622 ft 478 kts 75°
2026-05-04 16:01 52.98731 111.43702 26837 ft 492 kts 71°
2026-05-04 16:02 52.99618 111.49197 26133 ft 502 kts 69°
2026-05-04 16:02 53.00578 111.54818 25485 ft 510 kts 69°
2026-05-04 16:02 53.02478 111.65742 23989 ft 484 kts 68°
2026-05-04 16:03 53.03430 111.71204 21917 ft 492 kts 68°
2026-05-04 16:03 53.04443 111.76520 20679 ft 483 kts 65°
2026-05-04 16:03 53.05567 111.81688 19879 ft 468 kts 64°
2026-05-04 16:03 53.06715 111.86659 19438 ft 464 kts 62°
2026-05-04 16:04 53.07442 111.91774 20704 ft 438 kts 79°
2026-05-04 16:04 53.07063 112.01865 20763 ft 444 kts 88°
2026-05-04 16:04 53.07335 112.06913 20858 ft 435 kts 74°
2026-05-04 16:05 53.07861 112.11868 20873 ft 435 kts 73°
2026-05-04 16:05 53.08405 112.16816 20861 ft 436 kts 73°
2026-05-04 16:05 53.09605 112.26709 20840 ft 436 kts 72°
2026-05-04 16:06 53.09858 112.31738 20710 ft 446 kts 87°
2026-05-04 16:06 53.07481 112.45601 18510 ft 474 kts 115°
2026-05-04 16:07 53.05349 112.51808 17173 ft 459 kts 121°
2026-05-04 16:07 52.98774 112.60180 15148 ft 361 kts 175°
2026-05-04 16:08 52.96367 112.60281 14598 ft 339 kts 185°
2026-05-04 16:08 52.89508 112.60451 12959 ft 330 kts 167°
2026-05-04 16:09 52.85167 112.63184 11905 ft 340 kts 154°
2026-05-04 16:09 52.80880 112.66737 10821 ft 346 kts 153°
2026-05-04 16:10 52.76674 112.70369 9742 ft 335 kts 152°
2026-05-04 16:11 52.70745 112.75602 9684 ft 313 kts 150°
2026-05-04 16:11 52.68843 112.77272 9696 ft 308 kts 150°
2026-05-04 16:12 52.63246 112.82170 9703 ft 299 kts 150°
2026-05-04 16:12 52.57493 112.87186 8684 ft 325 kts 150°
2026-05-04 16:13 52.53399 112.90743 7953 ft 337 kts 150°
2026-05-04 16:13 52.49276 112.94428 7217 ft 334 kts 149°
2026-05-04 16:14 52.45275 112.98113 6478 ft 326 kts 149°
2026-05-04 16:14 52.41387 113.01703 6105 ft 315 kts 148°
2026-05-04 16:15 52.35739 113.06932 6104 ft 304 kts 148°
2026-05-04 16:16 52.32091 113.10294 6109 ft 299 kts 148°
2026-05-04 16:16 52.26661 113.15285 6108 ft 296 kts 148°
2026-05-04 16:17 52.23099 113.18547 6315 ft 285 kts 148°
2026-05-04 16:18 52.17931 113.23261 6361 ft 272 kts 148°
2026-05-04 16:18 52.16298 113.24758 6362 ft 268 kts 147°
2026-05-04 16:19 52.11443 113.29199 6386 ft 266 kts 148°
2026-05-04 16:19 52.08214 113.32136 6384 ft 265 kts 147°
2026-05-04 16:20 52.03384 113.36524 6387 ft 263 kts 147°
2026-05-04 16:20 52.01174 113.40790 6466 ft 249 kts 95°
2026-05-04 16:21 51.99857 113.48981 6383 ft 242 kts 100°
2026-05-04 16:22 51.98968 113.54097 6372 ft 231 kts 98°
2026-05-04 16:22 51.97661 113.61633 6371 ft 230 kts 98°
2026-05-04 16:23 51.96354 113.69092 6369 ft 229 kts 98°
2026-05-04 16:24 51.98746 113.73270 6440 ft 165 kts 294°
2026-05-04 16:25 51.97874 113.69994 6403 ft 174 kts 211°
2026-05-04 16:26 51.96883 113.71048 3017 ft 0 kts 192°
2026-05-04 16:26 51.96883 113.71047 3017 ft 0 kts 192°